Wyszukaj podmiot
Liczba podmiotów: 1
AKADEMICKIE STOWARZYSZENIE INICJATYW SPOŁECZNO-EDUKACYJNYCH
LUBLIN NIP: 7122832136 KRS: 0000179348 Regon: 432680902
Oferujemy dostęp online do bazy składającej się z ponad 1 mln sprawozdań dla ponad 400 tys. podmiotów KRS.
Nasz raport zawiera:
- identyfikację podmiotu,
- bilanse i rachunki wyników,
- wyliczone wskaźniki (tabela i wykresy).
Możesz importować dane bezpośrednio do Excela!!!
Każde sprawozdanie uwzględnia:
- okres którego dotyczy,
- zawartość (bilans, rachunek wyników porównawczy/kalkulacyjny),
- zidentyfikowane błędy/ostrzeżenia w sprawozdaniach,
- dynamikę zmiany poszczególnych pozycji rok do roku.
Ostatnio przeglądane Sprawozdania Finansowe w naszym serwisie:
Data wykonaniaNazwaNumerSpr.
08.05.2026 12:05:01 SPECJALISTYCZNE CENTRUM PIELĘGNACYJNO- OPIEKUŃCZE "EWA-MED" SP. Z O.O. 00002637388
08.05.2026 12:00:42 SOLVAY POLAND SP. Z O.O. 00004432788
08.05.2026 11:53:26 NWL EUROPE SP. Z O.O. 00009197764
08.05.2026 11:38:26 KRAJOWA IZBA PRODUCENTÓW RYB 00001331508
08.05.2026 11:14:47 JABS SOKÓŁKA S.A. 00000044978
08.05.2026 10:46:52 FUKS GROUP SPÓŁKA Z OGRANICZONĄ ODPOWIEDZIALNOŚCIĄ SP.K. 00006416144
08.05.2026 10:43:27 FUKS GROUP SP. Z O.O. 00006328448
08.05.2026 10:28:11 RTS SP. Z O.O. 00001659988
08.05.2026 10:23:00 BOZE SP. Z O.O. 00009275203
08.05.2026 10:23:00 ETEON ONE SPÓŁKA Z OGRANICZONĄ ODPOWIEDZIALNOŚCIĄ SP.K. 00006010788
08.05.2026 10:22:12 KDW LATYFUNDIA SP. Z O.O. 00008968504
08.05.2026 10:14:09 PROTECH SP. Z O.O. 00004130059
08.05.2026 10:09:30 ARCHITEKTONICZNE BIURO USŁUG PROJEKTOWYCH "GACEK & HOFFMANN" SP. Z O.O. 00001318915
08.05.2026 09:57:55 PAGO SP. Z O.O. 00002981808
08.05.2026 09:32:22 "BRODR.JORGENSEN" S.A. 00001050559
08.05.2026 09:25:59 BRAND DISTRIBUTION POLAND SP. Z O.O. 00005658188
08.05.2026 09:16:39 "DZIAŁPOL" SP. Z O.O. 00000952258
08.05.2026 09:09:49 BIOGAZ DZIAŁYŃ SP. Z O.O. 00004245148
08.05.2026 09:08:03 BIOKINETICA S.A. 00005745217
08.05.2026 09:04:27 MANUTAN POLSKA SP. Z O.O. 00000491668
08.05.2026 08:51:57 "ARKA" SP. Z O.O. 00001895398
08.05.2026 08:48:02 NZOZ PRZYCHODNIA STOMATOLOGICZNA SP. Z O.O. 00007104916
08.05.2026 08:35:10 AURELIUS DEBITUM BANKO SP. Z O.O. 00011695292
08.05.2026 08:26:53 GOLDBECK ELEMENTY POLSKA SP. Z O.O. 00006666119
08.05.2026 08:09:57 "MODUSMED" SP. Z O.O. 00003433079